APRIZESAT 1

Satellite information

Favourite Embed

Satellite Type and Status

PAYLOADIN ORBIT

Key statistics

Satellite APRIZESAT 1 at a glance.

Uptime

7618

Days in orbit

Revolutions

≈ 14.5

Per day

Orbit

SSO

Sun Synchronous Orbit

Inclination

98.6

Latest

Satellite identification and parameters

Extended collection of information and parameters for APRIZESAT 1.

Object identification

Identified? True

Debris? False

Object name: APRIZESAT 1

International designator: 2004-025G

Object number (NORAD): 28372

Object ID (CCSDS): 28372

Country: UNITED STATES OF AMERICA (US)

Current information (Y/N): Y

RCS size: SMALL

Orbital parameters

Period: 99.212 minutes

Inclination: 98.6228 deg

SMA: 7099.114 km

Apoapsis: 752.105 km

Periapsis: 689.853 km

RAAN: 122.8092 deg

Eccentricy: 0.0043845

Argument of periapsis: 308.2547 deg

Mean anomaly: 51.4705 deg

Mean motion: 14.51431496 rev/day

Mean motion (dot): 0.00000441 rev/day2

B* drag term: 0.00012146 1/REarth

Two-line elements (TLE)

Creation date: May 8, 2025, 3:01 a.m.

Reference frame: TEME

Reference center: EARTH

Epoch: May 7, 2025, 10:07 p.m. UTC

TLE line 0: 0 APRIZESAT 1

TLE line 1: 1 28372U 04025G 25127.92197181 .00000441 00000-0 12146-3 0 9994

TLE line 2: 2 28372 98.6228 122.8092 0043845 308.2547 51.4705 14.51431496103112

Live tracking on map

Real-time ground track for satellite APRIZESAT 1.

In-orbit conjunctions

There are no conjunctions computed for APRIZESAT 1, at the moment. Check back to stay up to date, as we update our databases every day.

Go to all conjunctions

Associated space launch

AprizeSat, is a constellation of small Low-Earth-Orbit satellites (64 satellites planned) to achieve a global communication system of data transmission and fixed and mobile asset tracking and monitoring (GMPCS).

APRIZESAT 1 was lifted into orbit during the mission ‘Dnepr | Aprizesat-2’, on board a Dnepr space rocket.

The launch took place on June 29, 2004, 6:30 a.m. from 109/95.

For more information about the launch, click the button.

Launch to space Dnepr | Aprizesat-2
Dnepr | Aprizesat-2

Agency: N/A

Status: Launch Successful

Launch date: June 29, 2004, 6:30 a.m. UTC

Rocket: Dnepr

Launch pad: 109/95

Location: Baikonur Cosmodrome, Republic of Kazakhstan

...

Latest news about this satellite

There are no fresh news available about this satellite. Check back as we update our databases every day.


Newsletter sign-up

Weekly statistics, charts and insights to help you stay on top of the space industry.